| time (UTC) | temp F | wind direction | speed knots | gust knots | rain 1hr in | rain 24hr in | rain mn in | humidity % | barometer mb |
| 20260508162032 | 68 | 52 | 2.6 | 7.8 | 0.00 | 0.56 | 0.00 | 59 | 1017.0 |
| 20260508161543 | 68 | 0 | 2.6 | 7.8 | 0.00 | 0.56 | 0.00 | 61 | 1017.0 |
| 20260508161030 | 68 | 0 | 4.3 | 7.8 | 0.00 | 0.56 | 0.00 | 60 | 1017.1 |
| 20260508160531 | 68 | 84 | 1.7 | 7.8 | 0.00 | 0.56 | 0.00 | 62 | 1017.5 |
| 20260508160042 | 68 | 124 | 2.6 | 7.8 | 0.00 | 0.56 | 0.00 | 63 | 1017.4 |
| 20260508155529 | 68 | 94 | 2.6 | 7.8 | 0.00 | 0.72 | 0.00 | 63 | 1017.4 |
| 20260508155030 | 68 | 216 | 3.5 | 7.8 | 0.00 | 0.72 | 0.00 | 64 | 1017.4 |
| 20260508154540 | 67 | 138 | 4.3 | 7.8 | 0.00 | 0.72 | 0.00 | 64 | 1017.5 |
| 20260508154030 | 66 | 61 | 0.9 | 7.8 | 0.00 | 0.72 | 0.00 | 65 | 1017.6 |
| 20260508153530 | 66 | 141 | 3.5 | 7.8 | 0.00 | 0.72 | 0.00 | 65 | 1017.7 |
| 20260508153042 | 66 | 141 | 1.7 | 7.0 | 0.00 | 0.72 | 0.00 | 68 | 1017.6 |
| 20260508152530 | 65 | 149 | 1.7 | 7.0 | 0.00 | 0.72 | 0.00 | 68 | 1017.7 |
| 20260508152030 | 66 | 131 | 3.5 | 7.0 | 0.00 | 0.72 | 0.00 | 69 | 1017.8 |
| 20260508151543 | 65 | 321 | 0.9 | 5.2 | 0.00 | 0.72 | 0.00 | 72 | 1017.8 |
| 20260508151030 | 64 | 244 | 0.9 | 5.2 | 0.00 | 0.72 | 0.00 | 72 | 1017.8 |
| 20260508150529 | 64 | 57 | 1.7 | 4.3 | 0.00 | 0.72 | 0.00 | 72 | 1017.8 |
| 20260508150042 | 63 | 76 | 0.9 | 5.2 | 0.00 | 0.72 | 0.00 | 74 | 1017.8 |
| 20260508145530 | 62 | 72 | 1.7 | 5.2 | 0.00 | 0.89 | 0.00 | 73 | 1017.8 |
| 20260508145028 | 62 | 89 | 0.9 | 3.5 | 0.00 | 0.89 | 0.00 | 74 | 1017.8 |
| 20260508144540 | 62 | 0 | 0.9 | 4.3 | 0.00 | 0.89 | 0.00 | 75 | 1017.9 |
| 20260508144030 | 62 | 62 | 0.0 | 4.3 | 0.00 | 0.89 | 0.00 | 76 | 1018.0 |
| 20260508143531 | 61 | 62 | 1.7 | 4.3 | 0.00 | 0.89 | 0.00 | 75 | 1017.9 |
| 20260508143040 | 61 | 108 | 1.7 | 3.5 | 0.00 | 0.89 | 0.00 | 77 | 1017.9 |
| 20260508142532 | 60 | 92 | 0.0 | 3.5 | 0.00 | 0.89 | 0.00 | 78 | 1017.7 |
| 20260508142030 | 60 | 0 | 0.9 | 3.5 | 0.00 | 0.89 | 0.00 | 79 | 1017.7 |
| 20260508141539 | 59 | 82 | 0.9 | 2.6 | 0.00 | 0.89 | 0.00 | 79 | 1017.7 |
| 20260508141031 | 59 | 0 | 0.0 | 3.5 | 0.00 | 0.89 | 0.00 | 80 | 1017.7 |
| 20260508140531 | 58 | 0 | 0.0 | 3.5 | 0.00 | 0.89 | 0.00 | 80 | 1017.6 |
| 20260508140042 | 58 | 28 | 0.0 | 4.3 | 0.00 | 0.89 | 0.00 | 81 | 1017.6 |
| 20260508135532 | 58 | 41 | 0.9 | 4.3 | 0.00 | 1.04 | 0.00 | 80 | 1017.7 |
| 20260508135030 | 58 | 44 | 1.7 | 4.3 | 0.00 | 1.04 | 0.00 | 81 | 1017.8 |
| 20260508134545 | 58 | 51 | 1.7 | 3.5 | 0.00 | 1.04 | 0.00 | 82 | 1017.6 |
| 20260508134029 | 57 | 26 | 0.0 | 2.6 | 0.00 | 1.04 | 0.00 | 84 | 1017.7 |
| 20260508133532 | 57 | 5 | 0.0 | 2.6 | 0.00 | 1.04 | 0.00 | 84 | 1017.7 |
| 20260508133043 | 57 | 5 | 0.9 | 2.6 | 0.00 | 1.04 | 0.00 | 84 | 1017.9 |
| 20260508132529 | 56 | 360 | 0.0 | 2.6 | 0.00 | 1.04 | 0.00 | 85 | 1017.9 |
| 20260508132030 | 56 | 0 | 0.0 | 0.9 | 0.00 | 1.04 | 0.00 | 86 | 1017.9 |
| 20260508131542 | 55 | 0 | 0.0 | 2.6 | 0.00 | 1.04 | 0.00 | 87 | 1017.8 |
| 20260508131030 | 55 | 0 | 0.0 | 2.6 | 0.00 | 1.04 | 0.00 | 87 | 1017.9 |
| 20260508130531 | 54 | 325 | 0.9 | 2.6 | 0.00 | 1.04 | 0.00 | 88 | 1017.9 |
| 20260508130036 | 54 | 325 | 0.9 | 1.7 | 0.00 | 1.04 | 0.00 | 88 | 1018.0 |
| 20260508125528 | 54 | 0 | 0.0 | 1.7 | 0.00 | 1.17 | 0.00 | 90 | 1018.0 |
| 20260508125030 | 53 | 0 | 0.0 | 0.0 | 0.00 | 1.17 | 0.00 | 91 | 1017.9 |
| 20260508124540 | 53 | 0 | 0.0 | 0.0 | 0.00 | 1.17 | 0.00 | 91 | 1017.8 |
| 20260508124029 | 53 | 0 | 0.0 | 1.7 | 0.00 | 1.17 | 0.00 | 92 | 1017.7 |
| 20260508123529 | 52 | 0 | 0.0 | 1.7 | 0.00 | 1.17 | 0.00 | 92 | 1017.8 |
| 20260508123040 | 52 | 328 | 0.0 | 1.7 | 0.00 | 1.17 | 0.00 | 92 | 1017.8 |
| 20260508122529 | 52 | 0 | 0.0 | 2.6 | 0.00 | 1.17 | 0.00 | 91 | 1017.9 |
| 20260508122030 | 51 | 329 | 0.9 | 2.6 | 0.00 | 1.17 | 0.00 | 92 | 1017.9 |
| 20260508121543 | 51 | 329 | 0.9 | 1.7 | 0.00 | 1.17 | 0.00 | 93 | 1017.8 |
| 20260508121028 | 51 | 330 | 0.0 | 1.7 | 0.00 | 1.17 | 0.00 | 93 | 1017.7 |
| 20260508120528 | 51 | 0 | 0.0 | 1.7 | 0.00 | 1.17 | 0.00 | 93 | 1017.6 |
| 20260508120044 | 51 | 0 | 0.0 | 0.0 | 0.00 | 1.17 | 0.00 | 94 | 1017.5 |
| 20260508115528 | 50 | 0 | 0.0 | 0.9 | 0.00 | 1.31 | 0.00 | 93 | 1017.4 |
| 20260508115027 | 50 | 0 | 0.0 | 0.9 | 0.00 | 1.31 | 0.00 | 93 | 1017.1 |
| 20260508114550 | 50 | 0 | 0.0 | 0.0 | 0.00 | 1.31 | 0.00 | 93 | 1017.1 |
| 20260508114030 | 49 | 0 | 0.0 | 0.0 | 0.00 | 1.31 | 0.00 | 93 | 1016.9 |
| 20260508113531 | 49 | 0 | 0.0 | 0.0 | 0.00 | 1.31 | 0.00 | 93 | 1016.7 |
| 20260508113043 | 49 | 0 | 0.0 | 0.0 | 0.00 | 1.31 | 0.00 | 93 | 1016.6 |
| 20260508112529 | 49 | 0 | 0.0 | 1.7 | 0.00 | 1.31 | 0.00 | 93 | 1016.4 |
| 20260508112031 | 49 | 0 | 0.0 | 1.7 | 0.00 | 1.31 | 0.00 | 92 | 1016.3 |
| 20260508111556 | 49 | 0 | 0.0 | 1.7 | 0.00 | 1.31 | 0.00 | 92 | 1016.2 |
| 20260508111030 | 49 | 332 | 0.0 | 1.7 | 0.00 | 1.31 | 0.00 | 92 | 1016.3 |
| 20260508110530 | 49 | 0 | 0.0 | 0.0 | 0.00 | 1.31 | 0.00 | 92 | 1016.2 |
| 20260508110040 | 49 | 0 | 0.0 | 0.0 | 0.00 | 1.31 | 0.00 | 92 | 1016.2 |
| 20260508105528 | 49 | 0 | 0.0 | 0.0 | 0.00 | 1.42 | 0.00 | 92 | 1016.2 |
| 20260508105030 | 50 | 0 | 0.0 | 0.0 | 0.00 | 1.42 | 0.00 | 92 | 1016.0 |
| 20260508104541 | 50 | 0 | 0.0 | 0.0 | 0.00 | 1.42 | 0.00 | 92 | 1015.9 |
| 20260508104028 | 50 | 0 | 0.0 | 0.0 | 0.00 | 1.42 | 0.00 | 92 | 1015.8 |
| 20260508103528 | 50 | 0 | 0.0 | 0.0 | 0.00 | 1.42 | 0.00 | 92 | 1015.7 |
| 20260508103041 | 50 | 0 | 0.0 | 0.0 | 0.00 | 1.42 | 0.00 | 92 | 1015.6 |
| 20260508102530 | 50 | 0 | 0.0 | 0.0 | 0.00 | 1.42 | 0.00 | 92 | 1015.5 |
| 20260508102028 | 50 | 0 | 0.0 | 0.0 | 0.00 | 1.42 | 0.00 | 93 | 1015.5 |
| 20260508101537 | 50 | 0 | 0.0 | 0.0 | 0.00 | 1.42 | 0.00 | 92 | 1015.3 |
| 20260508101029 | 49 | 0 | 0.0 | 0.0 | 0.00 | 1.42 | 0.00 | 92 | 1015.3 |
| 20260508100528 | 50 | 0 | 0.0 | 0.0 | 0.00 | 1.42 | 0.00 | 91 | 1015.2 |
| 20260508100038 | 50 | 0 | 0.0 | 0.0 | 0.00 | 1.42 | 0.00 | 91 | 1015.2 |
| 20260508095530 | 50 | 0 | 0.0 | 0.0 | 0.00 | 1.54 | 0.00 | 91 | 1015.1 |
| 20260508095033 | 50 | 0 | 0.0 | 0.0 | 0.00 | 1.54 | 0.00 | 91 | 1015.1 |
| 20260508094545 | 50 | 0 | 0.0 | 0.0 | 0.00 | 1.54 | 0.00 | 91 | 1015.2 |
| 20260508094030 | 50 | 0 | 0.0 | 0.0 | 0.00 | 1.54 | 0.00 | 91 | 1015.2 |
| 20260508093532 | 50 | 0 | 0.0 | 0.0 | 0.00 | 1.54 | 0.00 | 91 | 1015.1 |
| 20260508093042 | 51 | 0 | 0.0 | 0.0 | 0.00 | 1.54 | 0.00 | 91 | 1015.0 |
| 20260508092532 | 51 | 0 | 0.0 | 0.0 | 0.00 | 1.54 | 0.00 | 91 | 1014.9 |
| 20260508092032 | 51 | 0 | 0.0 | 0.0 | 0.00 | 1.54 | 0.00 | 91 | 1015.0 |
| 20260508091544 | 51 | 0 | 0.0 | 0.0 | 0.00 | 1.54 | 0.00 | 91 | 1014.9 |
| 20260508091032 | 51 | 0 | 0.0 | 0.0 | 0.00 | 1.54 | 0.00 | 91 | 1014.9 |
| 20260508090533 | 51 | 0 | 0.0 | 0.0 | 0.00 | 1.54 | 0.00 | 91 | 1014.8 |
| 20260508090036 | 51 | 0 | 0.0 | 0.0 | 0.00 | 1.54 | 0.00 | 91 | 1014.7 |
| 20260508085530 | 51 | 0 | 0.0 | 0.0 | 0.00 | 1.68 | 0.00 | 91 | 1014.6 |
| 20260508085029 | 51 | 0 | 0.0 | 1.7 | 0.00 | 1.68 | 0.00 | 91 | 1014.7 |
| 20260508084541 | 51 | 0 | 0.0 | 2.6 | 0.00 | 1.68 | 0.00 | 91 | 1014.8 |
| 20260508084032 | 51 | 0 | 0.0 | 2.6 | 0.00 | 1.68 | 0.00 | 91 | 1014.7 |
| 20260508083531 | 51 | 333 | 0.9 | 2.6 | 0.00 | 1.68 | 0.00 | 91 | 1014.7 |
| 20260508083048 | 51 | 333 | 0.9 | 2.6 | 0.00 | 1.68 | 0.00 | 91 | 1014.7 |
| 20260508082534 | 52 | 333 | 0.9 | 2.6 | 0.00 | 1.68 | 0.00 | 91 | 1014.6 |
| 20260508082030 | 52 | 332 | 0.0 | 1.7 | 0.00 | 1.68 | 0.00 | 91 | 1014.6 |
| 20260508081546 | 52 | 0 | 0.0 | 0.0 | 0.00 | 1.68 | 0.00 | 91 | 1014.6 |
| 20260508081031 | 52 | 0 | 0.0 | 0.0 | 0.00 | 1.68 | 0.00 | 91 | 1014.6 |
| 20260508080531 | 52 | 0 | 0.0 | 0.9 | 0.00 | 1.68 | 0.00 | 91 | 1014.7 |
| 20260508080053 | 52 | 0 | 0.0 | 1.7 | 0.00 | 1.68 | 0.00 | 91 | 1014.6 |
| 20260508075531 | 52 | 0 | 0.0 | 1.7 | 0.00 | 1.83 | 0.00 | 91 | 1014.6 |
| 20260508075031 | 52 | 332 | 0.9 | 1.7 | 0.00 | 1.83 | 0.00 | 90 | 1014.7 |
| 20260508074543 | 52 | 332 | 0.0 | 1.7 | 0.00 | 1.83 | 0.00 | 90 | 1014.7 |
| 20260508074032 | 53 | 0 | 0.0 | 0.0 | 0.00 | 1.83 | 0.00 | 90 | 1014.8 |
| 20260508073532 | 53 | 0 | 0.0 | 1.7 | 0.00 | 1.83 | 0.00 | 90 | 1014.7 |
| 20260508073045 | 53 | 0 | 0.0 | 1.7 | 0.00 | 1.83 | 0.00 | 89 | 1014.7 |
| 20260508072531 | 53 | 331 | 0.9 | 1.7 | 0.00 | 1.83 | 0.00 | 89 | 1014.7 |
| 20260508072031 | 53 | 331 | 0.9 | 1.7 | 0.00 | 1.83 | 0.00 | 89 | 1014.8 |
| 20260508071540 | 54 | 331 | 0.9 | 1.7 | 0.00 | 1.83 | 0.00 | 89 | 1014.8 |
| 20260508071033 | 54 | 0 | 0.0 | 1.7 | 0.00 | 1.83 | 0.00 | 88 | 1015.0 |
| 20260508070533 | 54 | 0 | 0.0 | 1.7 | 0.00 | 1.83 | 0.00 | 89 | 1015.0 |
| 20260508070042 | 54 | 0 | 0.0 | 1.7 | 0.00 | 1.83 | 0.00 | 89 | 1015.1 |
| 20260508065530 | 54 | 0 | 0.0 | 1.7 | 0.00 | 1.99 | 0.00 | 89 | 1015.0 |
| 20260508065031 | 54 | 332 | 0.0 | 1.7 | 0.00 | 1.99 | 0.00 | 89 | 1015.0 |
| 20260508064541 | 54 | 0 | 0.0 | 1.7 | 0.00 | 1.99 | 0.00 | 89 | 1015.0 |
| 20260508064032 | 54 | 0 | 0.0 | 2.6 | 0.00 | 1.99 | 0.00 | 89 | 1014.9 |
| 20260508063532 | 54 | 331 | 0.9 | 2.6 | 0.00 | 1.99 | 0.00 | 89 | 1015.0 |
| 20260508063040 | 54 | 329 | 0.0 | 2.6 | 0.00 | 1.99 | 0.00 | 89 | 1015.1 |
| 20260508062531 | 54 | 0 | 0.0 | 2.6 | 0.00 | 1.99 | 0.00 | 89 | 1015.2 |
| 20260508062030 | 55 | 329 | 0.0 | 2.6 | 0.00 | 1.99 | 0.00 | 89 | 1015.2 |
| 20260508061543 | 55 | 0 | 0.0 | 0.0 | 0.00 | 1.99 | 0.00 | 89 | 1015.2 |
| 20260508061035 | 55 | 0 | 0.0 | 0.0 | 0.00 | 1.99 | 0.00 | 89 | 1015.2 |
| 20260508060531 | 55 | 0 | 0.0 | 0.0 | 0.00 | 1.99 | 0.00 | 89 | 1015.1 |
| 20260508060037 | 55 | 0 | 0.0 | 0.0 | 0.00 | 1.99 | 0.00 | 89 | 1015.2 |
| 20260508055532 | 55 | 0 | 0.0 | 0.0 | 0.00 | 2.17 | 0.00 | 90 | 1015.3 |
| 20260508055033 | 56 | 0 | 0.0 | 0.0 | 0.00 | 2.17 | 0.00 | 89 | 1015.2 |
| 20260508054545 | 56 | 0 | 0.0 | 0.0 | 0.00 | 2.17 | 0.00 | 90 | 1015.1 |
| 20260508054031 | 56 | 0 | 0.0 | 1.7 | 0.00 | 2.17 | 0.00 | 90 | 1015.1 |
| 20260508053530 | 56 | 0 | 0.0 | 1.7 | 0.00 | 2.17 | 0.00 | 90 | 1015.3 |
| 20260508053047 | 56 | 0 | 0.0 | 0.9 | 0.00 | 2.17 | 0.00 | 90 | 1015.2 |
| 20260508052534 | 56 | 0 | 0.0 | 0.9 | 0.00 | 2.17 | 0.00 | 90 | 1015.1 |
| 20260508052031 | 56 | 0 | 0.0 | 1.7 | 0.00 | 2.17 | 0.00 | 90 | 1015.0 |
| 20260508051545 | 56 | 0 | 0.0 | 1.7 | 0.00 | 2.17 | 0.00 | 90 | 1015.1 |
| 20260508051032 | 56 | 0 | 0.0 | 2.6 | 0.00 | 2.17 | 0.00 | 90 | 1015.1 |
| 20260508050530 | 56 | 0 | 0.0 | 2.6 | 0.00 | 2.17 | 0.00 | 90 | 1015.3 |
| 20260508050042 | 56 | 331 | 0.0 | 2.6 | 0.00 | 2.17 | 0.00 | 90 | 1015.3 |
| 20260508045531 | 57 | 0 | 0.0 | 2.6 | 0.00 | 2.33 | 0.00 | 90 | 1015.4 |
| 20260508045030 | 57 | 333 | 0.0 | 1.7 | 0.00 | 2.33 | 0.00 | 90 | 1015.3 |
| 20260508044536 | 57 | 0 | 0.0 | 1.7 | 0.00 | 2.33 | 0.00 | 90 | 1015.2 |
| 20260508044031 | 57 | 0 | 0.0 | 1.7 | 0.00 | 2.33 | 0.00 | 90 | 1015.2 |
| 20260508043533 | 57 | 0 | 0.0 | 1.7 | 0.00 | 2.33 | 0.00 | 90 | 1015.2 |
| 20260508043049 | 57 | 0 | 0.0 | 1.7 | 0.00 | 2.33 | 0.00 | 90 | 1015.1 |
| 20260508042532 | 57 | 0 | 0.0 | 1.7 | 0.00 | 2.33 | 0.00 | 90 | 1015.1 |
| 20260508042031 | 57 | 340 | 0.0 | 1.7 | 0.00 | 2.33 | 0.00 | 90 | 1015.1 |
| 20260508041541 | 57 | 0 | 0.0 | 1.7 | 0.00 | 2.33 | 0.00 | 90 | 1015.1 |
| 20260508041030 | 57 | 340 | 0.0 | 3.5 | 0.00 | 2.33 | 0.00 | 90 | 1015.1 |
| 20260508040533 | 57 | 0 | 0.0 | 3.5 | 0.00 | 2.33 | 0.00 | 89 | 1014.8 |
| 20260508040051 | 57 | 0 | 0.0 | 0.9 | 0.00 | 2.33 | 0.00 | 89 | 1014.9 |
| 20260508035534 | 57 | 0 | 0.0 | 0.0 | 0.00 | 2.48 | 2.33 | 90 | 1014.7 |
| 20260508035033 | 57 | 0 | 0.0 | 0.9 | 0.00 | 2.48 | 2.33 | 89 | 1014.7 |
| 20260508034549 | 57 | 0 | 0.0 | 1.7 | 0.00 | 2.48 | 2.33 | 89 | 1014.9 |
| 20260508034030 | 57 | 0 | 0.0 | 1.7 | 0.00 | 2.48 | 2.33 | 89 | 1014.7 |
| 20260508033530 | 57 | 0 | 0.0 | 1.7 | 0.00 | 2.48 | 2.33 | 89 | 1014.7 |
| 20260508033109 | 57 | 0 | 0.0 | 0.0 | 0.00 | 2.48 | 2.33 | 89 | 1014.9 |
| 20260508032531 | 57 | 0 | 0.0 | 0.0 | 0.00 | 2.48 | 2.33 | 88 | 1014.8 |
| 20260508032032 | 58 | 0 | 0.0 | 0.0 | 0.00 | 2.48 | 2.33 | 88 | 1014.9 |
| 20260508031541 | 58 | 0 | 0.0 | 0.0 | 0.00 | 2.48 | 2.33 | 88 | 1014.8 |
| 20260508031031 | 58 | 0 | 0.0 | 1.7 | 0.00 | 2.48 | 2.33 | 88 | 1014.8 |
| 20260508030531 | 58 | 0 | 0.0 | 1.7 | 0.00 | 2.48 | 2.33 | 88 | 1014.9 |
| 20260508030040 | 58 | 0 | 0.0 | 1.7 | 0.00 | 2.48 | 2.33 | 88 | 1014.7 |
| 20260508025531 | 58 | 0 | 0.0 | 0.0 | 0.00 | 2.61 | 2.33 | 88 | 1014.6 |
| 20260508025030 | 58 | 0 | 0.0 | 0.0 | 0.00 | 2.61 | 2.33 | 88 | 1014.6 |
| 20260508024537 | 58 | 0 | 0.0 | 0.0 | 0.00 | 2.61 | 2.33 | 88 | 1014.5 |
| 20260508024031 | 58 | 0 | 0.0 | 0.0 | 0.00 | 2.61 | 2.33 | 87 | 1014.6 |
| 20260508023531 | 59 | 0 | 0.0 | 0.0 | 0.00 | 2.61 | 2.33 | 87 | 1014.6 |
| 20260508023043 | 59 | 0 | 0.0 | 0.0 | 0.00 | 2.61 | 2.33 | 87 | 1014.7 |
| 20260508022531 | 59 | 0 | 0.0 | 0.0 | 0.00 | 2.61 | 2.33 | 87 | 1014.6 |
| 20260508022032 | 59 | 0 | 0.0 | 0.0 | 0.00 | 2.61 | 2.33 | 87 | 1014.7 |
| 20260508021541 | 59 | 0 | 0.0 | 0.0 | 0.00 | 2.61 | 2.33 | 86 | 1014.6 |
| 20260508021031 | 59 | 0 | 0.0 | 0.9 | 0.00 | 2.61 | 2.33 | 86 | 1014.6 |
| 20260508020530 | 59 | 0 | 0.0 | 0.9 | 0.00 | 2.61 | 2.33 | 85 | 1014.4 |
| 20260508020041 | 60 | 0 | 0.0 | 0.9 | 0.00 | 2.61 | 2.33 | 85 | 1014.4 |
| 20260508015531 | 60 | 0 | 0.0 | 0.0 | 0.00 | 2.74 | 2.33 | 85 | 1014.4 |
| 20260508015032 | 60 | 0 | 0.0 | 0.0 | 0.00 | 2.74 | 2.33 | 84 | 1014.3 |
| 20260508014540 | 60 | 0 | 0.0 | 0.0 | 0.00 | 2.74 | 2.33 | 84 | 1014.3 |
| 20260508014031 | 61 | 0 | 0.0 | 0.0 | 0.00 | 2.74 | 2.33 | 84 | 1014.2 |
| 20260508013531 | 61 | 0 | 0.0 | 0.0 | 0.00 | 2.74 | 2.33 | 84 | 1014.1 |
| 20260508013042 | 61 | 0 | 0.0 | 0.0 | 0.00 | 2.74 | 2.33 | 83 | 1014.1 |
| 20260508012531 | 61 | 0 | 0.0 | 0.0 | 0.00 | 2.74 | 2.33 | 83 | 1013.9 |
| 20260508012031 | 61 | 0 | 0.0 | 0.0 | 0.00 | 2.74 | 2.33 | 82 | 1014.2 |
| 20260508011545 | 61 | 0 | 0.0 | 0.0 | 0.00 | 2.74 | 2.33 | 82 | 1014.1 |
| 20260508011032 | 61 | 0 | 0.0 | 0.9 | 0.00 | 2.74 | 2.33 | 82 | 1014.1 |
| 20260508010531 | 62 | 0 | 0.0 | 0.9 | 0.00 | 2.74 | 2.33 | 82 | 1014.0 |
| 20260508010042 | 62 | 0 | 0.0 | 2.6 | 0.00 | 2.74 | 2.33 | 82 | 1013.9 |
| 20260508005531 | 62 | 0 | 0.0 | 2.6 | 0.00 | 2.92 | 2.33 | 82 | 1013.9 |
| 20260508005031 | 62 | 347 | 0.9 | 3.5 | 0.00 | 2.92 | 2.33 | 82 | 1013.9 |
| 20260508004542 | 62 | 0 | 0.9 | 4.3 | 0.01 | 2.92 | 2.33 | 82 | 1013.9 |
| 20260508004032 | 62 | 0 | 1.7 | 4.3 | 0.01 | 2.92 | 2.33 | 82 | 1013.8 |
| 20260508003531 | 62 | 328 | 0.9 | 4.3 | 0.01 | 2.92 | 2.33 | 81 | 1013.7 |
| 20260508003040 | 63 | 0 | 0.9 | 4.3 | 0.01 | 2.92 | 2.33 | 82 | 1013.7 |
| 20260508002530 | 63 | 264 | 0.0 | 2.6 | 0.01 | 2.92 | 2.33 | 82 | 1013.7 |
| 20260508002034 | 63 | 0 | 0.9 | 4.3 | 0.01 | 2.92 | 2.33 | 82 | 1013.6 |
| 20260508001540 | 63 | 261 | 1.7 | 4.3 | 0.01 | 2.92 | 2.33 | 82 | 1013.5 |
| 20260508001030 | 63 | 324 | 0.9 | 4.3 | 0.02 | 2.92 | 2.33 | 82 | 1013.5 |
| 20260508000533 | 63 | 0 | 0.0 | 3.5 | 0.02 | 2.92 | 2.33 | 82 | 1013.4 |
| 20260508000047 | 63 | 0 | 0.0 | 3.5 | 0.02 | 2.92 | 2.33 | 82 | 1013.3 |
| 20260507235534 | 63 | 310 | 0.9 | 3.5 | 0.02 | 3.23 | 2.33 | 81 | 1013.3 |
| 20260507235031 | 63 | 0 | 0.0 | 2.6 | 0.02 | 3.23 | 2.33 | 81 | 1013.4 |
| 20260507234549 | 63 | 0 | 0.9 | 2.6 | 0.02 | 3.22 | 2.33 | 81 | 1013.3 |
| 20260507234031 | 64 | 0 | 0.0 | 6.1 | 0.02 | 3.22 | 2.33 | 81 | 1013.2 |
| 20260507233531 | 64 | 311 | 1.7 | 6.1 | 0.02 | 3.22 | 2.33 | 81 | 1013.3 |
| 20260507233042 | 64 | 292 | 1.7 | 4.3 | 0.02 | 3.22 | 2.33 | 80 | 1013.2 |
| 20260507232532 | 64 | 321 | 0.0 | 4.3 | 0.02 | 3.22 | 2.33 | 80 | 1013.2 |
| 20260507232031 | 64 | 316 | 1.7 | 7.0 | 0.03 | 3.22 | 2.33 | 80 | 1013.2 |
| 20260507231547 | 64 | 328 | 1.7 | 7.0 | 0.03 | 3.22 | 2.33 | 80 | 1013.0 |
| 20260507231032 | 64 | 315 | 2.6 | 7.8 | 0.02 | 3.21 | 2.32 | 79 | 1013.1 |
| 20260507230531 | 65 | 317 | 0.0 | 7.8 | 0.02 | 3.21 | 2.32 | 79 | 1013.1 |
| 20260507230042 | 65 | 294 | 1.7 | 7.8 | 0.03 | 3.21 | 2.32 | 79 | 1013.1 |
| 20260507225530 | 65 | 312 | 1.7 | 7.0 | 0.03 | 3.23 | 2.32 | 79 | 1013.1 |
| 20260507225033 | 65 | 330 | 2.6 | 7.0 | 0.03 | 3.23 | 2.32 | 79 | 1013.0 |
| 20260507224547 | 65 | 350 | 1.7 | 7.0 | 0.03 | 3.22 | 2.31 | 79 | 1012.9 |
| 20260507224030 | 65 | 0 | 1.7 | 7.0 | 0.03 | 3.22 | 2.31 | 79 | 1013.0 |
| 20260507223532 | 65 | 309 | 0.9 | 5.2 | 0.03 | 3.22 | 2.31 | 80 | 1013.0 |
| 20260507223042 | 66 | 0 | 0.0 | 7.8 | 0.03 | 3.22 | 2.31 | 79 | 1012.8 |
| 20260507222530 | 66 | 291 | 1.7 | 7.8 | 0.04 | 3.22 | 2.31 | 78 | 1012.8 |
| 20260507222030 | 65 | 339 | 1.7 | 7.8 | 0.03 | 3.21 | 2.30 | 79 | 1012.6 |
| 20260507221541 | 65 | 318 | 3.5 | 7.8 | 0.03 | 3.21 | 2.30 | 80 | 1012.7 |
| 20260507221033 | 65 | 11 | 1.7 | 7.0 | 0.04 | 3.21 | 2.30 | 81 | 1012.7 |
| 20260507220530 | 65 | 242 | 1.7 | 7.0 | 0.03 | 3.20 | 2.29 | 81 | 1012.8 |
| 20260507220040 | 65 | 0 | 1.7 | 4.3 | 0.04 | 3.20 | 2.29 | 81 | 1012.7 |
| 20260507215531 | 65 | 5 | 1.7 | 8.7 | 0.04 | 3.20 | 2.29 | 81 | 1012.7 |
| 20260507215031 | 65 | 0 | 2.6 | 8.7 | 0.04 | 3.20 | 2.29 | 81 | 1012.5 |
| 20260507214540 | 65 | 338 | 1.7 | 7.0 | 0.04 | 3.19 | 2.28 | 81 | 1012.5 |
| 20260507214031 | 65 | 323 | 2.6 | 7.0 | 0.04 | 3.19 | 2.28 | 81 | 1012.6 |
| 20260507213530 | 65 | 275 | 1.7 | 7.0 | 0.05 | 3.19 | 2.28 | 81 | 1012.4 |
| 20260507213053 | 65 | 344 | 2.6 | 7.0 | 0.05 | 3.19 | 2.28 | 81 | 1012.5 |
| 20260507212531 | 65 | 300 | 1.7 | 7.0 | 0.05 | 3.18 | 2.27 | 81 | 1012.4 |
| 20260507212032 | 65 | 311 | 0.9 | 5.2 | 0.05 | 3.18 | 2.27 | 82 | 1012.6 |
| 20260507211543 | 65 | 360 | 0.9 | 8.7 | 0.05 | 3.17 | 2.26 | 83 | 1012.4 |
| 20260507211031 | 65 | 286 | 1.7 | 8.7 | 0.05 | 3.17 | 2.26 | 82 | 1012.4 |
| 20260507210529 | 65 | 221 | 3.5 | 8.7 | 0.06 | 3.17 | 2.26 | 81 | 1012.2 |
| 20260507210045 | 66 | 231 | 2.6 | 8.7 | 0.06 | 3.16 | 2.25 | 81 | 1012.1 |
| 20260507205529 | 66 | 220 | 3.5 | 8.7 | 0.06 | 3.16 | 2.25 | 82 | 1012.3 |
| 20260507205028 | 65 | 5 | 2.6 | 8.7 | 0.06 | 3.15 | 2.24 | 81 | 1012.4 |
| 20260507204542 | 65 | 213 | 3.5 | 8.7 | 0.06 | 3.15 | 2.24 | 82 | 1012.3 |
| 20260507204028 | 65 | 9 | 2.6 | 8.7 | 0.07 | 3.15 | 2.24 | 82 | 1012.3 |
| 20260507203530 | 65 | 333 | 2.6 | 7.8 | 0.07 | 3.14 | 2.23 | 83 | 1012.3 |
| 20260507203044 | 64 | 340 | 3.5 | 9.6 | 0.07 | 3.14 | 2.23 | 83 | 1012.4 |
| 20260507202531 | 64 | 22 | 1.7 | 9.6 | 0.07 | 3.13 | 2.22 | 84 | 1012.3 |
| 20260507202031 | 64 | 351 | 1.7 | 7.0 | 0.08 | 3.13 | 2.22 | 84 | 1012.3 |
| 20260507201539 | 64 | 315 | 1.7 | 8.7 | 0.07 | 3.12 | 2.21 | 84 | 1012.4 |
| 20260507201032 | 64 | 304 | 1.7 | 8.7 | 0.07 | 3.11 | 2.20 | 84 | 1012.5 |
| 20260507200532 | 64 | 289 | 2.6 | 9.6 | 0.08 | 3.11 | 2.20 | 84 | 1012.8 |
| 20260507200043 | 65 | 119 | 2.6 | 9.6 | 0.08 | 3.10 | 2.19 | 84 | 1012.6 |
| 20260507195531 | 65 | 351 | 2.6 | 9.6 | 0.08 | 3.10 | 2.19 | 85 | 1012.4 |
| 20260507195031 | 64 | 182 | 2.6 | 8.7 | 0.08 | 3.09 | 2.18 | 85 | 1012.5 |
| 20260507194540 | 64 | 0 | 1.7 | 8.7 | 0.08 | 3.08 | 2.17 | 86 | 1012.5 |
| 20260507194028 | 64 | 323 | 2.6 | 8.7 | 0.09 | 3.08 | 2.17 | 85 | 1012.5 |
| 20260507193528 | 64 | 307 | 0.9 | 8.7 | 0.09 | 3.07 | 2.16 | 86 | 1012.6 |
| 20260507193050 | 64 | 313 | 2.6 | 8.7 | 0.09 | 3.07 | 2.16 | 85 | 1012.7 |
| 20260507192528 | 64 | 285 | 3.5 | 9.6 | 0.09 | 3.06 | 2.15 | 86 | 1012.6 |
| 20260507192032 | 64 | 352 | 2.6 | 9.6 | 0.09 | 3.05 | 2.14 | 86 | 1012.7 |
| 20260507191540 | 64 | 329 | 1.7 | 7.8 | 0.10 | 3.05 | 2.14 | 86 | 1012.7 |
| 20260507191029 | 64 | 267 | 1.7 | 5.2 | 0.10 | 3.04 | 2.13 | 87 | 1012.6 |
| 20260507190532 | 64 | 315 | 1.7 | 8.7 | 0.10 | 3.03 | 2.11 | 87 | 1012.6 |
| 20260507190037 | 63 | 319 | 1.7 | 9.6 | 0.10 | 3.02 | 2.10 | 88 | 1012.7 |
| 20260507185531 | 64 | 269 | 3.5 | 9.6 | 0.10 | 3.02 | 2.10 | 87 | 1012.7 |
| 20260507185029 | 64 | 286 | 1.7 | 7.0 | 0.10 | 3.01 | 2.09 | 88 | 1012.8 |
| 20260507184542 | 63 | 219 | 1.7 | 8.7 | 0.10 | 3.00 | 2.08 | 88 | 1012.7 |
| 20260507184028 | 63 | 294 | 2.6 | 8.7 | 0.10 | 2.99 | 2.08 | 89 | 1012.9 |
| 20260507183528 | 62 | 243 | 1.7 | 7.0 | 0.10 | 2.98 | 2.07 | 90 | 1012.9 |
| 20260507183044 | 62 | 265 | 2.6 | 7.0 | 0.11 | 2.98 | 2.07 | 89 | 1012.9 |
| 20260507182531 | 62 | 280 | 2.6 | 7.8 | 0.11 | 2.97 | 2.06 | 91 | 1012.9 |
| 20260507182029 | 62 | 311 | 1.7 | 8.7 | 0.11 | 2.96 | 2.05 | 90 | 1013.0 |
| 20260507181540 | 62 | 300 | 4.3 | 8.7 | 0.11 | 2.95 | 2.04 | 90 | 1013.2 |
| 20260507181029 | 62 | 335 | 3.5 | 8.7 | 0.11 | 2.94 | 2.03 | 90 | 1013.2 |
| 20260507180531 | 62 | 342 | 1.7 | 5.2 | 0.10 | 2.93 | 2.02 | 91 | 1013.1 |
| 20260507180039 | 62 | 309 | 1.7 | 8.7 | 0.10 | 2.92 | 2.01 | 91 | 1013.0 |
| 20260507175531 | 62 | 323 | 0.9 | 8.7 | 0.10 | 2.91 | 2.00 | 91 | 1013.1 |
| 20260507175028 | 62 | 242 | 3.5 | 10.4 | 0.11 | 2.91 | 2.00 | 90 | 1013.0 |
| 20260507174538 | 62 | 321 | 4.3 | 10.4 | 0.11 | 2.90 | 1.99 | 91 | 1013.1 |
| 20260507174030 | 63 | 336 | 1.7 | 8.7 | 0.11 | 2.89 | 1.98 | 91 | 1013.0 |
| 20260507173528 | 63 | 321 | 1.7 | 8.7 | 0.12 | 2.88 | 1.97 | 91 | 1013.1 |
| 20260507173045 | 63 | 277 | 1.7 | 11.3 | 0.12 | 2.87 | 1.96 | 92 | 1013.0 |
| 20260507172530 | 63 | 315 | 2.6 | 12.2 | 0.12 | 2.86 | 1.95 | 91 | 1012.9 |
| 20260507172032 | 63 | 306 | 4.3 | 12.2 | 0.12 | 2.85 | 1.94 | 91 | 1013.0 |
| 20260507171555 | 63 | 336 | 2.6 | 10.4 | 0.12 | 2.84 | 1.93 | 91 | 1013.0 |
| 20260507171034 | 64 | 257 | 2.6 | 9.6 | 0.12 | 2.83 | 1.92 | 90 | 1012.8 |
| 20260507170533 | 64 | 329 | 2.6 | 9.6 | 0.12 | 2.82 | 1.91 | 90 | 1012.8 |
| 20260507170044 | 64 | 319 | 2.6 | 8.7 | 0.12 | 2.81 | 1.90 | 92 | 1012.7 |
| 20260507165528 | 64 | 276 | 3.5 | 7.8 | 0.12 | 2.80 | 1.89 | 92 | 1012.7 |
| 20260507165030 | 64 | 289 | 2.6 | 7.8 | 0.14 | 2.80 | 1.89 | 91 | 1012.6 |
| 20260507164539 | 64 | 275 | 1.7 | 7.8 | 0.13 | 2.78 | 1.87 | 92 | 1012.5 |
| 20260507164029 | 64 | 195 | 2.6 | 11.3 | 0.13 | 2.77 | 1.86 | 92 | 1012.6 |
| 20260507163528 | 64 | 320 | 0.9 | 11.3 | 0.13 | 2.76 | 1.85 | 92 | 1012.5 |
| 20260507163039 | 64 | 351 | 3.5 | 11.3 | 0.14 | 2.75 | 1.84 | 93 | 1012.7 |
| 20260507162528 | 64 | 309 | 1.7 | 7.0 | 0.14 | 2.74 | 1.83 | 93 | 1012.4 |